Weather History for Coldwater, MI

Change the Weather History Date:

Monday, October 7, 2013

  Actual Average (KJYM) Record (KJYM)
Temperature  
Mean Temperature 50 °F -  
Max Temperature 59 °F 62 °F 86 °F (1963)
Min Temperature 41 °F 40 °F 20 °F (1964)
Degree Days  
Heating Degree Days 15    
Moisture  
Dew Point 44 °F    
Average Humidity 83    
Maximum Humidity 99    
Minimum Humidity 55    
Precipitation  
Precipitation 0.00 in - - ()
Sea Level Pressure  
Sea Level Pressure 29.89 in    
Wind  
Wind Speed 9 mph (WSW)    
Max Wind Speed 21 mph    
Max Gust Speed 28 mph    
Visibility 10 miles    
Events Rain    
Averages and records for this station are not official NWS values.
T = Trace of Precipitation, MM = Missing Value Source: NWS Daily Summary

Daily Weather History Graph

Daily Weather History Graph

Search for Another Location

Airport:

Trip Planner

Search our weather history database for the weather conditions in past years. The results will help you decide how hot, cold, wet, or windy it might be!

Date:

Astronomy

Oct. 07, 2013 Rise Set
Actual Time 7:43 AM EDT 7:11 PM EDT
Civil Twilight 7:16 AM EDT 7:39 PM EDT
Nautical Twilight 6:43 AM EDT 8:11 PM EDT
Astronomical Twilight 6:11 AM EDT 8:43 PM EDT
Moon 10:36 AM EDT (10/7) 8:52 PM EDT (10/7)
Length of Visible Light 12h 23m
Length of Day
11h 27m
Waxing Crescent, 8% of the Moon is Illuminated
Oct 7
Waxing Crescent
Oct 11
First Quarter
Oct 18
Full
Oct 26
Last Quarter
Nov 3
New

Hourly Weather History & Observations

Time (EDT) Temp. Windchill Dew Point Humidity Pressure Visibility Wind Dir Wind Speed Gust Speed Precip Events Conditions
12:14 AM 50.4 °F - 44.6 °F 81% 29.76 in 10.0 mi WSW 8.1 mph - N/A   Overcast
12:35 AM 50.2 °F - 43.9 °F 79% 29.75 in 10.0 mi WSW 8.1 mph - N/A   Overcast
12:54 AM 49.5 °F - 42.4 °F 77% 29.75 in 10.0 mi WSW 9.2 mph - N/A   Overcast
1:15 AM 49.1 °F - 42.3 °F 77% 29.75 in 10.0 mi WSW 9.2 mph 17.3 mph N/A   Overcast
1:35 AM 48.2 °F - 41.2 °F 77% 29.75 in 10.0 mi WSW 12.7 mph - N/A   Mostly Cloudy
1:54 AM 46.8 °F - 40.5 °F 79% 29.75 in 10.0 mi WSW 10.4 mph - N/A   Scattered Clouds
2:15 AM 44.8 °F 41.0 °F 41.2 °F 87% 29.75 in 10.0 mi WSW 6.9 mph - N/A   Clear
2:35 AM 44.8 °F 42.4 °F 41.0 °F 87% 29.75 in 10.0 mi SW 4.6 mph - N/A   Clear
2:55 AM 44.4 °F 40.0 °F 41.0 °F 88% 29.76 in 10.0 mi SW 8.1 mph - N/A   Clear
3:15 AM 45.0 °F 41.2 °F 41.4 °F 87% 29.76 in 10.0 mi SW 6.9 mph - N/A   Mostly Cloudy
3:34 AM 44.6 °F 40.2 °F 41.4 °F 88% 29.75 in 10.0 mi SW 8.1 mph - N/A   Overcast
3:55 AM 43.7 °F 39.1 °F 40.8 °F 90% 29.75 in 10.0 mi SW 8.1 mph - N/A   Scattered Clouds
4:15 AM 43.5 °F 39.4 °F 40.6 °F 90% 29.75 in 10.0 mi SW 6.9 mph - N/A   Clear
4:34 AM 42.8 °F 39.3 °F 40.5 °F 91% 29.75 in 10.0 mi SW 5.8 mph - N/A   Clear
4:55 AM 42.4 °F 38.8 °F 40.5 °F 93% 29.76 in 10.0 mi SW 5.8 mph - N/A   Clear
5:15 AM 42.1 °F 39.2 °F 40.3 °F 93% 29.75 in 10.0 mi SW 4.6 mph - N/A   Clear
5:34 AM 41.9 °F 38.2 °F 40.3 °F 94% 29.76 in 10.0 mi SW 5.8 mph - N/A   Clear
5:55 AM 42.3 °F 38.6 °F 40.5 °F 93% 29.76 in 10.0 mi SW 5.8 mph - N/A   Clear
6:15 AM 42.1 °F 38.4 °F 40.5 °F 94% 29.77 in 10.0 mi SW 5.8 mph - N/A   Clear
6:34 AM 42.1 °F 37.7 °F 40.5 °F 94% 29.77 in 10.0 mi SSW 6.9 mph - N/A   Clear
6:55 AM 41.9 °F 38.2 °F 40.5 °F 95% 29.78 in 10.0 mi SW 5.8 mph - N/A   Clear
7:15 AM 41.5 °F 37.1 °F 40.5 °F 96% 29.79 in 10.0 mi SW 6.9 mph - N/A   Scattered Clouds
7:34 AM 42.4 °F 38.8 °F 41.2 °F 95% 29.79 in 10.0 mi SW 5.8 mph - N/A   Scattered Clouds
7:55 AM 42.3 °F 39.4 °F 41.0 °F 95% 29.79 in 10.0 mi SW 4.6 mph - N/A   Scattered Clouds
8:15 AM 43.0 °F 37.7 °F 41.9 °F 96% 29.79 in 10.0 mi SW 9.2 mph - N/A   Scattered Clouds
8:34 AM 44.6 °F 39.2 °F 43.2 °F 95% 29.80 in 10.0 mi SW 10.4 mph - N/A   Mostly Cloudy
8:55 AM 46.0 °F 40.6 °F 43.5 °F 91% 29.80 in 10.0 mi WSW 11.5 mph 18.4 mph N/A   Overcast
9:14 AM 45.9 °F 40.4 °F 43.5 °F 92% 29.81 in 10.0 mi WSW 11.5 mph - N/A   Overcast
9:35 AM 45.7 °F 41.0 °F 43.5 °F 92% 29.82 in 10.0 mi SW 9.2 mph - N/A   Overcast
9:55 AM 46.2 °F 42.7 °F 43.9 °F 92% 29.82 in 10.0 mi WSW 6.9 mph - N/A   Overcast
10:14 AM 48.7 °F - 44.8 °F 86% 29.83 in 10.0 mi WSW 11.5 mph 20.7 mph N/A   Overcast
10:35 AM 49.1 °F - 44.6 °F 84% 29.83 in 10.0 mi WSW 12.7 mph 20.7 mph N/A   Overcast
10:54 AM 51.4 °F - 45.9 °F 81% 29.83 in 10.0 mi WSW 12.7 mph 19.6 mph N/A   Scattered Clouds
11:15 AM 52.2 °F - 45.1 °F 77% 29.84 in 10.0 mi West 13.8 mph 23.0 mph N/A   Mostly Cloudy
11:35 AM 54.3 °F - 45.9 °F 73% 29.84 in 10.0 mi WSW 16.1 mph 20.7 mph N/A   Scattered Clouds
11:54 AM 54.3 °F - 45.5 °F 72% 29.85 in 10.0 mi West 16.1 mph 24.2 mph N/A   Mostly Cloudy
12:15 PM 53.4 °F - 44.8 °F 73% 29.86 in 10.0 mi West 17.3 mph 23.0 mph N/A   Overcast
12:35 PM 54.0 °F - 44.8 °F 71% 29.87 in 10.0 mi West 18.4 mph 27.6 mph N/A   Overcast
12:54 PM 54.7 °F - 45.7 °F 72% 29.88 in 10.0 mi West 20.7 mph 25.3 mph N/A   Overcast
1:15 PM 55.0 °F - 46.4 °F 73% 29.88 in 10.0 mi WSW 18.4 mph 27.6 mph N/A   Overcast
1:35 PM 52.5 °F - 48.6 °F 86% 29.89 in 2.5 mi West 16.1 mph 24.2 mph N/A Rain Rain
1:54 PM 51.1 °F - 49.5 °F 94% 29.90 in 2.0 mi WSW 15.0 mph 23.0 mph N/A   Light Drizzle
2:15 PM 51.8 °F - 49.8 °F 93% 29.90 in 10.0 mi WSW 13.8 mph 20.7 mph N/A   Overcast
2:35 PM 53.6 °F - 49.6 °F 86% 29.90 in 10.0 mi WSW 19.6 mph 24.2 mph N/A   Overcast
2:54 PM 53.6 °F - 49.5 °F 86% 29.91 in 10.0 mi West 16.1 mph 19.6 mph N/A   Overcast
3:15 PM 55.8 °F - 50.4 °F 82% 29.91 in 10.0 mi West 17.3 mph 21.9 mph N/A   Overcast
3:35 PM 56.8 °F - 49.3 °F 76% 29.92 in 10.0 mi West 16.1 mph 24.2 mph N/A   Mostly Cloudy
3:54 PM 59.5 °F - 49.6 °F 70% 29.93 in 10.0 mi West 13.8 mph 27.6 mph N/A   Mostly Cloudy
4:15 PM 58.6 °F - 47.3 °F 66% 29.94 in 10.0 mi WNW 12.7 mph 23.0 mph N/A   Mostly Cloudy
4:34 PM 59.5 °F - 45.7 °F 60% 29.94 in 10.0 mi West 19.6 mph 24.2 mph N/A   Mostly Cloudy
4:55 PM 59.7 °F - 43.9 °F 56% 29.96 in 10.0 mi WNW 11.5 mph 19.6 mph N/A   Scattered Clouds
5:15 PM 57.4 °F - 43.3 °F 59% 29.96 in 10.0 mi WNW 11.5 mph - N/A   Clear
5:34 PM 59.0 °F - 42.8 °F 55% 29.97 in 10.0 mi WNW 16.1 mph 21.9 mph N/A   Clear
5:55 PM 58.5 °F - 43.0 °F 56% 29.97 in 10.0 mi West 13.8 mph - N/A   Clear
6:14 PM 57.6 °F - 43.7 °F 60% 29.99 in 10.0 mi WNW 9.2 mph - N/A   Clear
6:35 PM 57.0 °F - 43.0 °F 59% 29.99 in 10.0 mi WNW 10.4 mph - N/A   Clear
6:55 PM 55.8 °F - 43.5 °F 63% 30.00 in 10.0 mi WNW 6.9 mph - N/A   Clear
7:14 PM 53.8 °F - 44.1 °F 70% 30.02 in 10.0 mi WNW 6.9 mph - N/A   Clear
7:35 PM 51.4 °F - 43.9 °F 75% 30.03 in 10.0 mi West 4.6 mph - N/A   Clear
7:55 PM 49.3 °F - 43.3 °F 80% 30.03 in 10.0 mi West 4.6 mph - N/A   Clear
8:14 PM 48.4 °F - 43.7 °F 84% 30.04 in 10.0 mi WSW 4.6 mph - N/A   Clear
8:35 PM 48.9 °F - 44.1 °F 83% 30.06 in 10.0 mi SW 3.5 mph - N/A   Clear
8:55 PM 47.1 °F - 43.7 °F 88% 30.07 in 10.0 mi Calm Calm - N/A   Clear
9:14 PM 45.9 °F - 43.7 °F 92% 30.08 in 10.0 mi Calm Calm - N/A   Clear
9:35 PM 44.4 °F - 43.5 °F 97% 30.09 in 10.0 mi Calm Calm - N/A   Clear
9:55 PM 44.1 °F - 43.2 °F 97% 30.10 in 10.0 mi Calm Calm - N/A   Clear
10:14 PM 43.9 °F - 43.0 °F 97% 30.11 in 10.0 mi Calm Calm - N/A   Clear
10:35 PM 43.2 °F - 42.4 °F 97% 30.11 in 10.0 mi Calm Calm - N/A   Clear
10:55 PM 42.6 °F 40.9 °F 41.9 °F 97% 30.11 in 10.0 mi SSE 3.5 mph - N/A   Clear
11:14 PM 42.1 °F 40.2 °F 41.7 °F 99% 30.11 in 10.0 mi SSE 3.5 mph - N/A   Clear
11:35 PM 43.0 °F 41.3 °F 42.4 °F 98% 30.12 in 10.0 mi SSE 3.5 mph - N/A   Clear
11:54 PM 44.1 °F 42.5 °F 43.3 °F 97% 30.13 in 10.0 mi South 3.5 mph - N/A   Clear